Time,TemperatureF,DewpointF,PressureIn,WindDirection,WindDirectionDegrees,WindSpeedMPH,WindSpeedGustMPH,Humidity,HourlyPrecipIn,Conditions,Clouds,dailyrainin,SoftwareType,DateUTC
2013-11-20 00:09:00,23.9,21.0,30.35,East,94,0.0,-999.0,88,-99.99,,,0.00,weatherlink.com 1.10,2013-11-20 05:09:00,
2013-11-20 00:24:00,23.5,21.0,30.35,East,94,0.0,-999.0,88,-99.99,,,0.00,weatherlink.com 1.10,2013-11-20 05:24:00,
2013-11-20 00:39:00,25.4,23.0,30.35,ENE,70,1.0,-999.0,90,-99.99,,,0.00,weatherlink.com 1.10,2013-11-20 05:39:00,
2013-11-20 00:54:00,26.7,23.0,30.35,ENE,70,1.0,-999.0,87,-99.99,,,0.00,weatherlink.com 1.10,2013-11-20 05:54:00,
2013-11-20 01:09:00,27.0,23.0,30.35,ENE,69,0.0,-999.0,85,-99.99,,,0.00,weatherlink.com 1.10,2013-11-20 06:09:00,
2013-11-20 01:24:00,27.2,24.0,30.35,ENE,69,0.0,-999.0,86,-99.99,,,0.00,weatherlink.com 1.10,2013-11-20 06:24:00,
2013-11-20 01:39:00,27.3,23.0,30.35,ENE,69,1.0,-999.0,85,-99.99,,,0.00,weatherlink.com 1.10,2013-11-20 06:39:00,
2013-11-20 01:54:00,27.8,24.0,30.35,ENE,73,1.0,-999.0,84,-99.99,,,0.00,weatherlink.com 1.10,2013-11-20 06:54:00,
2013-11-20 02:09:00,27.9,24.0,30.35,ENE,66,2.0,-999.0,84,-99.99,,,0.00,weatherlink.com 1.10,2013-11-20 07:09:00,
2013-11-20 02:24:00,28.1,24.0,30.35,ENE,71,2.0,-999.0,83,-99.99,,,0.00,weatherlink.com 1.10,2013-11-20 07:24:00,
2013-11-20 02:39:00,27.9,23.0,30.35,ENE,65,1.0,-999.0,83,-99.99,,,0.00,weatherlink.com 1.10,2013-11-20 07:39:00,
2013-11-20 02:54:00,27.6,23.0,30.36,ESE,107,5.0,-999.0,83,-99.99,,,0.00,weatherlink.com 1.10,2013-11-20 07:54:00,
2013-11-20 03:09:00,27.6,23.0,30.36,East,92,3.0,-999.0,83,-99.99,,,0.00,weatherlink.com 1.10,2013-11-20 08:09:00,
2013-11-20 03:24:00,27.6,23.0,30.36,ENE,77,3.0,-999.0,83,-99.99,,,0.00,weatherlink.com 1.10,2013-11-20 08:24:00,
2013-11-20 03:39:00,27.6,23.0,30.36,ENE,75,0.0,-999.0,84,-99.99,,,0.00,weatherlink.com 1.10,2013-11-20 08:39:00,
2013-11-20 03:54:00,27.5,23.0,30.35,ENE,71,0.0,-999.0,84,-99.99,,,0.00,weatherlink.com 1.10,2013-11-20 08:54:00,
2013-11-20 04:09:00,27.2,23.0,30.35,ENE,74,2.0,-999.0,84,-99.99,,,0.00,weatherlink.com 1.10,2013-11-20 09:09:00,
2013-11-20 04:24:00,27.0,23.0,30.35,ENE,63,2.0,-999.0,84,-99.99,,,0.00,weatherlink.com 1.10,2013-11-20 09:24:00,
2013-11-20 04:39:00,26.9,23.0,30.35,ENE,66,0.0,-999.0,85,-99.99,,,0.00,weatherlink.com 1.10,2013-11-20 09:39:00,
2013-11-20 04:54:00,26.3,22.0,30.36,ENE,66,0.0,-999.0,84,-99.99,,,0.00,weatherlink.com 1.10,2013-11-20 09:54:00,
2013-11-20 05:09:00,26.0,22.0,30.36,ENE,66,0.0,-999.0,86,-99.99,,,0.00,weatherlink.com 1.10,2013-11-20 10:09:00,
2013-11-20 05:24:00,25.8,22.0,30.37,ENE,66,2.0,-999.0,86,-99.99,,,0.00,weatherlink.com 1.10,2013-11-20 10:24:00,
2013-11-20 05:39:00,26.4,23.0,30.37,NE,55,1.0,-999.0,86,-99.99,,,0.00,weatherlink.com 1.10,2013-11-20 10:39:00,
2013-11-20 05:54:00,26.6,23.0,30.38,ENE,65,2.0,-999.0,86,-99.99,,,0.00,weatherlink.com 1.10,2013-11-20 10:54:00,
2013-11-20 06:09:00,26.6,23.0,30.38,ENE,65,0.0,-999.0,86,-99.99,,,0.00,weatherlink.com 1.10,2013-11-20 11:09:00,
2013-11-20 06:24:00,26.6,23.0,30.37,ENE,65,0.0,-999.0,86,-99.99,,,0.00,weatherlink.com 1.10,2013-11-20 11:24:00,
2013-11-20 06:39:00,25.8,22.0,30.38,ENE,65,0.0,-999.0,86,-99.99,,,0.00,weatherlink.com 1.10,2013-11-20 11:39:00,
2013-11-20 06:54:00,25.1,22.0,30.38,ENE,65,0.0,-999.0,86,-99.99,,,0.00,weatherlink.com 1.10,2013-11-20 11:54:00,
2013-11-20 07:09:00,24.7,21.0,30.39,ENE,65,0.0,-999.0,86,-99.99,,,0.00,weatherlink.com 1.10,2013-11-20 12:09:00,
2013-11-20 07:24:00,24.7,22.0,30.39,ENE,65,0.0,-999.0,88,-99.99,,,0.00,weatherlink.com 1.10,2013-11-20 12:24:00,
2013-11-20 07:39:00,25.6,23.0,30.39,ENE,65,0.0,-999.0,89,-99.99,,,0.00,weatherlink.com 1.10,2013-11-20 12:39:00,
2013-11-20 07:54:00,27.0,25.0,30.39,ENE,65,0.0,-999.0,90,-99.99,,,0.00,weatherlink.com 1.10,2013-11-20 12:54:00,
2013-11-20 08:09:00,27.8,25.0,30.38,ENE,65,0.0,-999.0,89,-99.99,,,0.00,weatherlink.com 1.10,2013-11-20 13:09:00,
2013-11-20 08:24:00,28.2,25.0,30.39,ENE,65,0.0,-999.0,88,-99.99,,,0.00,weatherlink.com 1.10,2013-11-20 13:24:00,
2013-11-20 08:39:00,29.1,26.0,30.39,ENE,65,0.0,-999.0,88,-99.99,,,0.00,weatherlink.com 1.10,2013-11-20 13:39:00,
2013-11-20 08:54:00,30.9,27.0,30.38,ESE,113,3.0,-999.0,86,-99.99,,,0.00,weatherlink.com 1.10,2013-11-20 13:54:00,
2013-11-20 09:09:00,32.5,28.0,30.37,ESE,108,4.0,-999.0,82,-99.99,,,0.00,weatherlink.com 1.10,2013-11-20 14:09:00,
2013-11-20 09:24:00,33.4,27.0,30.37,SE,130,3.0,-999.0,78,-99.99,,,0.00,weatherlink.com 1.10,2013-11-20 14:24:00,
2013-11-20 09:39:00,34.1,28.0,30.37,SSE,153,4.0,-999.0,77,-99.99,,,0.00,weatherlink.com 1.10,2013-11-20 14:39:00,
2013-11-20 09:54:00,34.9,28.0,30.36,SE,144,2.0,-999.0,77,-99.99,,,0.00,weatherlink.com 1.10,2013-11-20 14:54:00,
2013-11-20 10:09:00,35.8,29.0,30.36,SE,129,6.0,-999.0,76,-99.99,,,0.00,weatherlink.com 1.10,2013-11-20 15:09:00,
2013-11-20 10:24:00,36.8,30.0,30.36,ESE,103,4.0,-999.0,76,-99.99,,,0.00,weatherlink.com 1.10,2013-11-20 15:24:00,
2013-11-20 10:39:00,36.5,30.0,30.36,ESE,111,1.0,-999.0,76,-99.99,,,0.00,weatherlink.com 1.10,2013-11-20 15:39:00,
2013-11-20 10:54:00,37.2,30.0,30.35,ESE,107,5.0,-999.0,76,-99.99,,,0.00,weatherlink.com 1.10,2013-11-20 15:54:00,
2013-11-20 11:09:00,38.0,31.0,30.34,East,92,4.0,-999.0,77,-99.99,,,0.00,weatherlink.com 1.10,2013-11-20 16:09:00,
2013-11-20 11:24:00,39.2,31.0,30.34,East,80,4.0,-999.0,71,-99.99,,,0.00,weatherlink.com 1.10,2013-11-20 16:24:00,
2013-11-20 11:39:00,39.9,29.0,30.32,SE,134,5.0,-999.0,66,-99.99,,,0.00,weatherlink.com 1.10,2013-11-20 16:39:00,
2013-11-20 11:54:00,40.2,29.0,30.31,East,94,3.0,-999.0,65,-99.99,,,0.00,weatherlink.com 1.10,2013-11-20 16:54:00,
2013-11-20 12:09:00,40.5,29.0,30.30,East,95,8.0,-999.0,63,-99.99,,,0.00,weatherlink.com 1.10,2013-11-20 17:09:00,
2013-11-20 12:24:00,41.2,28.0,30.28,SE,129,5.0,-999.0,60,-99.99,,,0.00,weatherlink.com 1.10,2013-11-20 17:24:00,
2013-11-20 12:39:00,41.8,27.0,30.27,SE,128,13.0,-999.0,56,-99.99,,,0.00,weatherlink.com 1.10,2013-11-20 17:39:00,
2013-11-20 12:54:00,41.5,25.0,30.28,SE,130,4.0,-999.0,53,-99.99,,,0.00,weatherlink.com 1.10,2013-11-20 17:54:00,
2013-11-20 13:09:00,41.9,27.0,30.27,ESE,112,9.0,-999.0,55,-99.99,,,0.00,weatherlink.com 1.10,2013-11-20 18:09:00,
2013-11-20 13:24:00,42.3,27.0,30.27,East,95,6.0,-999.0,56,-99.99,,,0.00,weatherlink.com 1.10,2013-11-20 18:24:00,
2013-11-20 13:39:00,41.6,27.0,30.25,SSE,159,6.0,-999.0,57,-99.99,,,0.00,weatherlink.com 1.10,2013-11-20 18:39:00,
2013-11-20 13:54:00,41.6,27.0,30.25,SE,136,2.0,-999.0,57,-99.99,,,0.00,weatherlink.com 1.10,2013-11-20 18:54:00,
2013-11-20 14:09:00,41.5,27.0,30.24,SE,132,5.0,-999.0,57,-99.99,,,0.00,weatherlink.com 1.10,2013-11-20 19:09:00,
2013-11-20 14:24:00,41.3,27.0,30.24,ESE,113,4.0,-999.0,57,-99.99,,,0.00,weatherlink.com 1.10,2013-11-20 19:24:00,
2013-11-20 14:39:00,41.2,26.0,30.25,SE,142,10.0,-999.0,56,-99.99,,,0.00,weatherlink.com 1.10,2013-11-20 19:39:00,
2013-11-20 14:54:00,41.5,27.0,30.24,SE,139,4.0,-999.0,56,-99.99,,,0.00,weatherlink.com 1.10,2013-11-20 19:54:00,
2013-11-20 15:09:00,41.2,27.0,30.23,SE,130,6.0,-999.0,58,-99.99,,,0.00,weatherlink.com 1.10,2013-11-20 20:09:00,
2013-11-20 15:24:00,41.5,26.0,30.23,East,89,5.0,-999.0,55,-99.99,,,0.00,weatherlink.com 1.10,2013-11-20 20:24:00,
2013-11-20 15:39:00,40.8,26.0,30.22,ESE,108,6.0,-999.0,55,-99.99,,,0.00,weatherlink.com 1.10,2013-11-20 20:39:00,
2013-11-20 15:54:00,41.1,26.0,30.22,East,90,4.0,-999.0,55,-99.99,,,0.00,weatherlink.com 1.10,2013-11-20 20:54:00,
2013-11-20 16:09:00,40.9,25.0,30.21,SE,126,7.0,-999.0,54,-99.99,,,0.00,weatherlink.com 1.10,2013-11-20 21:09:00,
2013-11-20 16:24:00,40.5,25.0,30.21,ESE,119,2.0,-999.0,55,-99.99,,,0.00,weatherlink.com 1.10,2013-11-20 21:24:00,
2013-11-20 16:39:00,39.8,26.0,30.21,East,94,2.0,-999.0,57,-99.99,,,0.00,weatherlink.com 1.10,2013-11-20 21:39:00,
2013-11-20 16:54:00,39.2,25.0,30.21,ESE,115,2.0,-999.0,58,-99.99,,,0.00,weatherlink.com 1.10,2013-11-20 21:54:00,
2013-11-20 17:09:00,38.5,26.0,30.22,ESE,117,3.0,-999.0,60,-99.99,,,0.00,weatherlink.com 1.10,2013-11-20 22:09:00,
2013-11-20 17:24:00,38.0,25.0,30.22,East,97,2.0,-999.0,61,-99.99,,,0.00,weatherlink.com 1.10,2013-11-20 22:24:00,
2013-11-20 17:39:00,37.5,26.0,30.21,East,83,3.0,-999.0,63,-99.99,,,0.00,weatherlink.com 1.10,2013-11-20 22:39:00,
2013-11-20 17:54:00,37.0,26.0,30.21,ESE,107,1.0,-999.0,65,-99.99,,,0.00,weatherlink.com 1.10,2013-11-20 22:54:00,
2013-11-20 18:09:00,36.8,27.0,30.22,SE,142,0.0,-999.0,67,-99.99,,,0.00,weatherlink.com 1.10,2013-11-20 23:09:00,
2013-11-20 18:24:00,36.6,27.0,30.22,SE,133,2.0,-999.0,69,-99.99,,,0.00,weatherlink.com 1.10,2013-11-20 23:24:00,
2013-11-20 18:39:00,36.2,27.0,30.23,ESE,109,0.0,-999.0,70,-99.99,,,0.00,weatherlink.com 1.10,2013-11-20 23:39:00,
2013-11-20 18:54:00,35.9,28.0,30.22,ESE,104,4.0,-999.0,72,-99.99,,,0.00,weatherlink.com 1.10,2013-11-20 23:54:00,
2013-11-20 19:09:00,35.8,28.0,30.22,SE,126,0.0,-999.0,73,-99.99,,,0.00,weatherlink.com 1.10,2013-11-21 00:09:00,
2013-11-20 19:24:00,35.6,28.0,30.21,East,94,0.0,-999.0,75,-99.99,,,0.00,weatherlink.com 1.10,2013-11-21 00:24:00,
2013-11-20 19:39:00,35.6,28.0,30.21,SSE,159,0.0,-999.0,75,-99.99,,,0.00,weatherlink.com 1.10,2013-11-21 00:39:00,
2013-11-20 19:54:00,35.6,28.0,30.21,SSE,159,1.0,-999.0,75,-99.99,,,0.00,weatherlink.com 1.10,2013-11-21 00:54:00,
2013-11-20 20:09:00,35.8,29.0,30.21,SSE,150,0.0,-999.0,75,-99.99,,,0.00,weatherlink.com 1.10,2013-11-21 01:09:00,
2013-11-20 20:24:00,35.8,28.0,30.20,SE,136,0.0,-999.0,74,-99.99,,,0.00,weatherlink.com 1.10,2013-11-21 01:24:00,
2013-11-20 20:39:00,35.8,28.0,30.20,SE,128,0.0,-999.0,73,-99.99,,,0.00,weatherlink.com 1.10,2013-11-21 01:39:00,
2013-11-20 20:54:00,35.3,27.0,30.20,ESE,102,0.0,-999.0,73,-99.99,,,0.00,weatherlink.com 1.10,2013-11-21 01:54:00,
2013-11-20 21:09:00,35.3,27.0,30.20,SE,140,0.0,-999.0,72,-99.99,,,0.00,weatherlink.com 1.10,2013-11-21 02:09:00,
2013-11-20 21:24:00,35.8,28.0,30.19,SE,136,0.0,-999.0,72,-99.99,,,0.00,weatherlink.com 1.10,2013-11-21 02:24:00,
2013-11-20 21:39:00,36.2,28.0,30.19,ESE,109,1.0,-999.0,71,-99.99,,,0.00,weatherlink.com 1.10,2013-11-21 02:39:00,
2013-11-20 21:54:00,36.6,27.0,30.18,East,89,1.0,-999.0,69,-99.99,,,0.00,weatherlink.com 1.10,2013-11-21 02:54:00,
2013-11-20 22:09:00,37.0,27.0,30.18,East,87,3.0,-999.0,68,-99.99,,,0.00,weatherlink.com 1.10,2013-11-21 03:09:00,
2013-11-20 22:24:00,37.3,27.0,30.18,ESE,109,2.0,-999.0,67,-99.99,,,0.00,weatherlink.com 1.10,2013-11-21 03:24:00,
2013-11-20 22:39:00,37.3,28.0,30.18,SE,136,0.0,-999.0,68,-99.99,,,0.00,weatherlink.com 1.10,2013-11-21 03:39:00,
2013-11-20 22:54:00,37.2,27.0,30.18,ESE,106,4.0,-999.0,68,-99.99,,,0.00,weatherlink.com 1.10,2013-11-21 03:54:00,
2013-11-20 23:09:00,37.5,28.0,30.19,SSE,154,0.0,-999.0,68,-99.99,,,0.00,weatherlink.com 1.10,2013-11-21 04:09:00,
2013-11-20 23:24:00,37.6,28.0,30.20,SSE,154,0.0,-999.0,69,-99.99,,,0.00,weatherlink.com 1.10,2013-11-21 04:24:00,
2013-11-20 23:39:00,37.6,29.0,30.21,SSE,154,0.0,-999.0,70,-99.99,,,0.00,weatherlink.com 1.10,2013-11-21 04:39:00,
2013-11-20 23:54:00,37.9,29.0,30.21,SSE,154,0.0,-999.0,70,-99.99,,,0.00,weatherlink.com 1.10,2013-11-21 04:54:00,